Location: Newark
(7.0858°N, 171.3717°E)
Time: 02:44:25
(UTC+00:00)

Transit 4A - Pass Details

Date: 29 November 2020
Orbit: 864 x 980 km, 66.8° (Epoch: 20 January)

Event Time Altitude Azimuth Distance (km) Brightness Sun altitude
Rises 06:40:44 0° 340° (NNW) 3,601 11.0 -6.7°
Reaches altitude 10° 06:43:18 10° 340° (NNW) 2,641 10.3 -7.3°
Maximum altitude 06:49:27 89° 254° (WSW) 919 7.9 -8.7°
Drops below altitude 10° 06:55:25 10° 161° (SSE) 2,563 10.2 -10.1°
Sets 06:57:52 0° 161° (SSE) 3,488 10.9 -10.7°
